This is the latest recevied weather packets stored in our database for station/object NE1CU. If no packets are shown the sender has not sent any weather packets the latest 10 day(s).
| Time | Temp. | Humidity | Pressure | Rain* | Wind** | Luminosity | Snow |
|---|---|---|---|---|---|---|---|
| 1777149188 | 7.22° C | 82% | 1017.9 hPa | 0 mm | - | 151 W/m² | - |
| 1777148888 | 7.22° C | 81% | 1017.8 hPa | 0 mm | - | 175 W/m² | - |
| 1777148585 | 6.67° C | 81% | 1018.2 hPa | 0 mm | - | 170 W/m² | - |
| 1777148281 | 6.67° C | 78% | 1018.1 hPa | 0 mm | - | 175 W/m² | - |
| 1777147978 | 7.22° C | 80% | 1018 hPa | 1.27 mm | - | 175 W/m² | - |
| 1777147673 | 7.22° C | 81% | 1018 hPa | 1.27 mm | - | 179 W/m² | - |
| 1777147369 | 7.22° C | 81% | 1018 hPa | 0 mm | - | 175 W/m² | - |
| 1777147064 | 7.22° C | 81% | 1018 hPa | 0 mm | - | 166 W/m² | - |
| 1777146761 | 7.22° C | 81% | 1017.8 hPa | 0 mm | - | 156 W/m² | - |
| 1777146457 | 7.22° C | 82% | 1017.9 hPa | 0 mm | - | 157 W/m² | - |
| 1777146154 | 7.22° C | 81% | 1017.6 hPa | 1.78 mm | - | 125 W/m² | - |
| 1777145849 | 7.22° C | 81% | 1017.8 hPa | 1.78 mm | - | 118 W/m² | - |
| 1777145545 | 7.22° C | 82% | 1017.6 hPa | 0 mm | - | 119 W/m² | - |
| 1777145241 | 7.22° C | 80% | 1017.7 hPa | 0 mm | - | 138 W/m² | - |
| 1777144936 | 7.22° C | 81% | 1017.9 hPa | 0 mm | - | 146 W/m² | - |
| 1777144635 | 7.22° C | 80% | 1017.9 hPa | 0 mm | - | 160 W/m² | - |
| 1777144331 | 7.78° C | 81% | 1017.8 hPa | 0 mm | - | 161 W/m² | - |
| 1777144027 | 7.22° C | 79% | 1017.9 hPa | 1.27 mm | - | 149 W/m² | - |
| 1777143723 | 7.78° C | 79% | 1018.1 hPa | 1.27 mm | - | 179 W/m² | - |
| 1777143420 | 7.78° C | 79% | 1018.1 hPa | 0 mm | - | 200 W/m² | - |
| 1777143116 | 7.78° C | 78% | 1018 hPa | 0 mm | - | 190 W/m² | - |
| 1777142811 | 7.78° C | 77% | 1018.1 hPa | 0 mm | - | 157 W/m² | - |
| 1777142509 | 7.78° C | 79% | 1017.9 hPa | 0 mm | - | 179 W/m² | - |
| 1777142207 | 7.78° C | 75% | 1018 hPa | 0 mm | - | 191 W/m² | - |
| 1777141904 | 7.78° C | 78% | 1018.1 hPa | 0 mm | - | 209 W/m² | - |
* Rain latest hour (hover to see other rain measurements)
** Current wind speed in m/s (hover to see current wind gust speed)